Location: Unspecified
(0.0000°N, 0.0000°E)
Time: 08:34:53
(UTC+00:00)

Explorer 7 - All Passes

Search period start: 25 April 2017 00:00
Search period end: 05 May 2017 00:00
Orbit: 486 x 684 km, 50.3° (Epoch: 23 April)

Date Brightness Start Highest point End Pass type
(mag) Time Alt. Az. Time Alt. Az. Time Alt. Az.
25 Apr - 03:01:12 10° N 03:04:09 21° NE 03:07:04 10° ESE night (unlit)
25 Apr - 04:42:07 10° W 04:44:29 16° SW 04:46:52 10° SSW visible
25 Apr - 15:02:19 10° SSW 15:06:53 41° SE 15:11:30 10° ENE daylight
25 Apr - 16:44:20 10° W 16:47:26 17° NW 16:50:31 10° NNW daylight
26 Apr - 03:06:17 10° NNW 03:09:59 51° NE 03:13:39 10° SE night (unlit)
26 Apr - 15:07:50 10° SW 15:12:42 84° SE 15:17:38 10° NE daylight
27 Apr - 03:12:03 10° NW 03:15:49 61° SW 03:19:31 10° SSE night (unlit)
27 Apr - 13:35:31 10° SSE 13:38:00 14° SE 13:40:31 10° E daylight
27 Apr - 15:13:51 10° SW 15:18:31 47° NW 15:23:16 10° NNE daylight
28 Apr - 01:39:09 10° NNE 01:41:16 14° NE 01:43:19 10° E night (unlit)
28 Apr - 03:18:27 10° WNW 03:21:38 25° SW 03:24:46 10° S night (unlit)
28 Apr - 13:39:48 10° S 13:43:51 27° SE 13:48:00 10° ENE daylight
28 Apr - 15:20:28 10° WSW 15:24:22 24° NW 15:28:19 10° N daylight
29 Apr - 01:43:39 10° N 01:47:08 31° NE 01:50:31 10° ESE night (unlit)
29 Apr - 03:26:14 10° WSW 03:27:28 11° SW 03:28:41 10° SSW night (unlit)
29 Apr - 13:44:59 10° SSW 13:49:39 55° SE 13:54:27 10° NE daylight
29 Apr - 15:28:21 10° WNW 15:30:16 12° NW 15:32:11 10° NNW daylight
30 Apr - 01:49:04 10° NNW 01:52:58 78° NE 01:56:44 10° SE night (unlit)
30 Apr - 13:50:43 10° SW 13:55:28 72° NW 14:00:22 10° NNE daylight
01 May - 01:55:05 10° NW 01:58:46 41° SW 02:02:21 10° SSE night (unlit)
01 May - 12:17:35 10° S 12:20:49 18° SE 12:24:07 10° E daylight
01 May - 13:56:58 10° WSW 14:01:18 35° NW 14:05:45 10° NNE daylight
02 May - 00:21:13 10° N 00:24:13 20° NE 00:27:08 10° E night (unlit)
02 May - 02:01:51 10° W 02:04:34 18° SW 02:07:14 10° S night (unlit)
02 May - 12:22:20 10° SSW 12:26:37 36° SE 12:31:03 10° ENE daylight
02 May - 14:03:57 10° W 14:07:10 18° NW 14:10:27 10° N daylight
03 May - 00:26:13 10° NNW 00:30:05 46° NE 00:33:46 10° SE night (unlit)
03 May - 12:27:46 10° SSW 12:32:25 76° SE 12:37:16 10° NE daylight
04 May - 00:31:54 10° NW 00:35:53 70° SW 00:39:42 10° SSE night (unlit)
04 May - 10:56:06 10° SSE 10:57:47 12° SE 10:59:28 10° ESE daylight
04 May - 12:33:42 10° SW 12:38:13 51° NW 12:42:57 10° NNE daylight
04 May - 22:59:08 10° NNE 23:01:15 14° NE 23:03:19 10° E night (unlit)
